Retour au catalogue

STARLINK-35980

ActifCommunicationsVLEO
NORAD 66600·PAYLOAD·🇺🇸 United States

Lancé Nov 22, 2025 depuis Cape Canaveral Space Force Station

Loading…

Prochains Passages (prochaines 24 heures)

TLE

FraisSource: CelesTrak SupGP

Époque: Sep 14, 2026, 21:36 UTC

1 66600C 25270N   26257.90048611  .00050697  00000+0  18367-2 0  2575
2 66600  43.0039  67.9160 0001435 276.3649 303.9064 15.27544959    15

Suivez STARLINK-35980 en temps réel avec AllMySat

Download on the App Store